Simultaneous Nadir Overpasses (SNOs) Predictions

Prediction of SNOs near US between AQUA and NPP Satellite Orbit:

Table of predicted SNOs near US for the next 10.0 days since TLE Epoch: 3/5/2022
Index Date (AQUA) Time (AQUA) AQUA Lat,Lon Date (NPP) Time (NPP) NPP Lat,Lon Distance(km) Time Diff (sec)
1 03/06/2022 07:18:23 49.90, -75.52 03/06/2022 07:20:24 50.40, -78.15 195.24 121
2 03/06/2022 08:57:16 49.89,-100.24 03/06/2022 09:01:51 50.56,-103.44 239.78 275
3 03/08/2022 18:16:26 49.97, -79.74 03/08/2022 18:10:41 49.63, -81.69 145.15 345
4 03/08/2022 19:55:19 49.98,-104.46 03/08/2022 19:52:09 49.52,-107.02 190.52 190
5 03/11/2022 09:22:34 24.75,-112.59 03/11/2022 09:15:32 24.95,-113.49 93.89 422
6 03/14/2022 06:30:00 44.75, -65.04 03/14/2022 06:31:08 45.28, -67.60 209.96 68
7 03/14/2022 08:07:26 49.91, -87.75 03/14/2022 08:11:07 50.52, -90.78 226.21 221
